Showing default

ARVAKER-2, 64567

Orbit data source: Space-Track

ARVAKER-2, 64567 is a payload satellite owned by NSC (NO) in SSO that was launched on Mon, 23 Jun 2025 UTC via an FALCON 9 launch vehicle from the Air Force Western Test Range (AFWTR). Payload-class satellites include a variety of spacecraft equipped with specific instruments for various scientific and technological missions. These include communications satellites like Starlink; space stations such as the ISS; scientific satellites like the Hubble; Earth observation satellites from companies like Planet Labs, Umbra, and HawkEye 360; GPS; miniature CubeSats for education and research; and military/defense satellites.

Loading next visibility...
Identifier
64567, 2025-135AR
Orbit
SSO
Country
Flag of NONO / NOR
Related business
Manufacturer
NanoAvionics
Mission
Operational Commercial Sigint
Bus & Motor
MP42, Unknown motor
Mass
~100 kg wet, ~100 kg dry
Launch date (UTC)
2025-06-23 (7 months ago)
Launch vehicle
FALCON 9
Launch site
Air Force Western Test Range (AFWTR)
Object type
Payload
Rocket body
Debris
Shape & HBR
Box + 2 Pan, 0.5 m
Radar Cross Section
0.146 m², Medium (>0.1 m² and < 1m²)

Expand to show TLE details & history
Last TLE update: 10 hours ago

TLE from 10 hours ago
0 ARVAKER-2
1 64567U 25135AR  26035.82347578  .00004079  00000-0  39928-3 0  9998
2 64567  97.7604 151.6359 0002196  61.4380 298.7060 14.92846229 34122
Epoch: 2026-02-04T19:45Z
TLE epoch observation values (Epoch: 2026-02-04T19:45:48.307Z)
Latitude
-0.00003°
Longitude
80.2001°
Altitude
591.374 km
Speed
7.565 km/s
True Right ascension
10h 06m 32s
True Declination
0° 00' 00"
Sunlit
Object was in full shadow at epoch
Visualization orbit readout
Latitude
Unknown
Longitude
Unknown
Altitude
Unknown
Speed
Unknown
Apparent Right ascension
Unknown
Apparent Declination
Unknown
Sunlit
N/A
Visualization observer readout
Local Sidereal Time
07:51:47
Azimuth
Unknown
Elevation
Unknown
Doppler factor
Unknown
Orbital elements
Apogee altitude
587.613 km
Perigee altitude
584.554 km
Semi-major axis
6,964.22 km
Eccentricity
0.00022
Inclination
97.7604°
RAAN
151.6359°
Arg. of periapsis
61.438°
True anomaly
298.68393°
Mean anomaly
298.706°
Eccentric anomaly
298.69496°
Mean motion
3.73452 °/min
Orbital period
96.4 mins
BSTAR
0.00039928
Loading maneuver chart data...
Computing Atmospheric mass density...
Loading historical data...
Loading historical data...
Loading historical data...
Loading historical data...
Loading historical data...
Loading historical data...
Loading historical data...

Documentation

Showing up to 5 results
|